Flag for U.S.A. Weather past 2 weeks in Baltimore, Maryland, U.S.A.

Now
63 °F

Overcast.


Feels Like: 63 °F
Forecast: 60 / 78 °F
Wind: 7 mph from East

Location: Baltimore-Washington International Airport

Current Time: Sep 20, 2014 at 2:34:30 AM

Latest Report: Sep 20, 2014 at 1:54 AM


Visibility: 8 mi

Pressure: 30.28 "Hg

Humidity: 90%

Dew point: 60 °F

Location of BaltimoreLocation

Historic Weather in Baltimore — Graph

°F

Baltimore temperature yesterday

Maximum temperature yesterday: 73 °F (at 2:54 PM)
Minimum temperature yesterday: 55 °F (at 1:54 AM)
Average temperature yesterday: 64 °F

Past Weeks' High & Low Weather Summary

 TemperatureHumidityPressure
High92 °F (Sep 6, 2:54 PM)100% (Sep 5, 8:00 AM)30.32 "Hg (Sep 5, 8:00 AM)
Low50 °F (Sep 14, 5:54 AM)35% (Sep 7, 3:54 PM)29.85 "Hg (Sep 6, 4:54 PM)
Average69 °F72%30.09 "Hg
* Reported Sep 5 12:54 AM — Sep 20 12:54 AM, Baltimore, Weather by CustomWeather, © 2014

Note: Actual official high and low records may vary slightly from our data, if they occured in-between our weather recording intervals... More about our weather records

Advertising

Baltimore weather history for previous 24 hours

 ConditionsComfort  
Time TempWeatherWind HumidityBarometerVisibility
12:54 AM
Sep 20
63 °FMostly cloudy.7 mph87%30.30 "Hg9 mi
11:54 PM
Sep 19
62 °FPartly cloudy.7 mph86%30.30 "Hg10 mi
10:54 PM64 °FMostly cloudy.6 mph81%30.31 "Hg10 mi
9:54 PM65 °FPartly cloudy.10 mph78%30.30 "Hg10 mi
8:54 PM66 °FPartly cloudy.8 mph73%30.30 "Hg10 mi
7:54 PM67 °FPartly sunny.10 mph68%30.28 "Hg10 mi
6:54 PM69 °FBroken clouds.10 mph66%30.26 "Hg10 mi
5:54 PM70 °FPartly sunny.10 mph64%30.26 "Hg10 mi
4:54 PM73 °FPartly sunny.13 mph57%30.25 "Hg10 mi
3:54 PM73 °FScattered clouds.9 mph55%30.26 "Hg10 mi
2:54 PM73 °FScattered clouds.9 mph55%30.26 "Hg10 mi
1:54 PM70 °FPartly sunny.7 mph61%30.27 "Hg10 mi
12:54 PM70 °FScattered clouds.12 mph61%30.27 "Hg10 mi
11:54 AM67 °FBroken clouds.9 mph66%30.28 "Hg10 mi
10:54 AM65 °FBroken clouds.9 mph66%30.27 "Hg10 mi
9:54 AM63 °FScattered clouds.13 mph65%30.27 "Hg10 mi
8:54 AM61 °FScattered clouds.12 mph67%30.25 "Hg10 mi
7:54 AM58 °FScattered clouds.9 mph75%30.24 "Hg10 mi
6:54 AM57 °FPassing clouds.7 mph78%30.22 "Hg10 mi
5:54 AM56 °FPassing clouds.6 mph81%30.19 "Hg10 mi
4:54 AM57 °FPassing clouds.6 mph78%30.17 "Hg10 mi
3:54 AM56 °FClear.3 mph87%30.15 "Hg10 mi
2:54 AM55 °FFog.No wind96%30.13 "Hg6 mi
Weather by CustomWeather, © 2014

See weather overviewHow to use our weather pages